OBJECT R

基本信息
目录编号:
43891
目录名称:
OBJECT R
国际标识:
2018-111R
轨道中心:
EARTH
物体状态:
在轨
发射日期:
2018-12-27 UTC
国别:
(TBD)
轨道信息
数据来源: 国际轨道数据
星历时间: 2026-09-04T04:58:12+0800
半长轴: 6830.078km
偏心率: 0.0018923
轨道倾角: 97.007°
近地点辐角: 349.599°
升交点赤经: 78.989°
平近点角: 10.486°
近地点: 439.016km
远地点: 464.866km
周期: 93.626分钟
每日圈数: 15.380283
详细信息
发射场:
VOSTO
轨道高度:
LEO
数据来源:
AOE Working Group
参考系:
TEME
时间系统:
UTC
历元类型:
SGP4
2D轨道图
3D轨道图
轨道高度分析图
轨道倾角分析图
轨道综合分析图
查看轨道综合分析图